Find the Weather for any City, State  
or Zipcode, or Country:

West Linn, OR 97068 Weather
Local Radar
Local Radar  
Graphs, Details
Graphs and Gauges
Detailed Weather
Detailed Reports
Maps
Temperature
Heat Index
Windchill
Humidity
Radar
Dew Point
Wind
Visibility
Visible Satellite
Satellite
Fronts
Snow Depth
Jet Stream
Flight Rules
Forecast Maps
Temperature Forecast
Maximum Temperature Forecast
Minimum Temperature Forecast
Dewpoint Forecast
Prevalent Weather
12Hr Probability of Precip.
Sky Cover
Health Maps
UV Forecast
Air Quality
Peak Air Quality Index
Weather Station
Oregon Scientific WMR-968
Current Conditions [Select Refresh to Update]
Updated: 10:30am on 7/24/14
(location)
Currently:
59.2°
Clear
Scattered Clouds
High: 59.2° 
(10:24am) 
Low: 55.4° 
(4:14am)
Wind: 3 mph from the SW
Gust: 4 mph
Today's High Wind: 11 mph (5:52am)
Humidity: 91%
Pressure: 30.25 in  (Steady) 
Pressure Rate: 0.005 in/hr
Dew Point: 56.6°
Wind Chill: 59.2°
Heat Index (feels like): 65.0°
Comfort Level: Cool
Temperature Rate:  1.60°/hr
 
5 Day Forecast
 
Thu Fri Sat Sun Mon
Clear Clear Clear Clear Clear
Chance Rain Partly Cloudy Partly Cloudy Partly Cloudy Partly Cloudy
75° 79° 82° 88° 90°
52° 55° 57° 59° 59°
Records and Normals
 
Temperature Forecast Normal Record
High 75° 83° 103°
(1991)
Low 52° 55° 38°
(1989)
 
Weather Advisories
No Advisories
Full Advisory Text...
Weather Map
Almanac
 
Sunrise:  
5:47am
Moonrise: 
4:00am
Moon Phase:
7%
Sunset: 
8:49pm
Moonset:  
7:05pm
 Star Chart...
Rainfall Totals
Hourly Rain 0.00 in
Daily Rain: 0.00 in
Monthly Rain: 0.87 in
Yearly Rain: 34.80 in
Normal Rain, month to date: 1.07 in
Normal Rain, year to date: 21.56 in
Local Weather Exchange® Network
Station ID City 
(Click for Map Location)
Neighborhood 
(Click for History)
Last Update (Date & Time) Temperature
 (°)
Dew
Point (°)
Humidity 
(%)
Wind 
(mph)
from the Wind Gust 
(mph) 
Pressure (in) Hourly
Rain (in)
KORWESTL3 West Linn Sunburst II 07/24 10:30:03 59.2 57.0 91 4 SW 5 30.25 0.00
KORWESTL7 West Linn Hidden Springs 07/24 10:24:39 59.2 55.0 87 6 SSW 17 30.23 0.00
KORWESTL11 West Linn Ridgebrook Park 07/24 10:26:16 59.6 56.0 86 5 SE 10 30.26 0.00
KORWESTL13 West Linn Vineland 07/24 10:29:16 61.7 54.0 76 0 North 0 27.44 0.00
MORCO3 West Linn HADS WILLAMETTE RIVER BELOW OREGON CI OR US USGS 07/24 09:15:00 60.0 52.0 75 11 South 19 30.19 0.00
KORLAKEO12 Lake Oswego Marylhurst University 07/24 10:29:56 62.8 54.0 73 6 South 10 30.22 0.00
KORGLADS5 GLADSTONE GLADSTONE (USA) 07/24 10:30:04 61.9 55.0 79 3 SSE 4 29.98 0.00
KOROREGO14 Oregon City 221 Molalla Avenue 07/24 10:30:01 60.4 54.0 81 8 SSW 9 29.93 0.00
KORMILWA11 Milwaukie Oak Grove (GO BLAZERS) 07/24 10:30:05 61.0 56.0 82 2 South 4 30.23 0.00
KORGLADS6 Gladstone Gladstone - Gallweather.com 07/24 10:20:45 60.8 56.0 83 2 SSE 7 30.23 0.00
KORPORTL111 Portland Oakgrove PO 1E (Milwaukie) 07/24 10:29:57 60.7 56.0 84 7 WNW 7 30.24 0.00
KORGLADS4 Gladstone Gladstone - Go Beavers! 07/24 10:29:59 61.5 56.0 81 3 South 6 29.92 0.00
KORLAKEO14 Lake Oswego Rivergrove 07/24 10:25:16 65.4 59.0 81 1 SSW 6 30.18 0.00
KOROREGO6 Oregon City Gaffney Lane Neighborhood 07/24 10:30:01 65.8 61.0 85 10 SSW 12 30.14 0.00
KORCLACK8 Clackamas Watkins Park 07/24 10:30:05 60.6 54.0 78 7 South 16 30.19 0.00
KORCLACK6 Clackamas CHPCS Falcons 07/24 10:21:57 62.1 56.0 81 1 East 0 30.21 0.00
KORTUALA3 Tualatin Tualatin 07/24 10:24:11 62.4 54.0 74 0 South 0 30.29 0.00
KORTIGAR19 Tigard La maison de Saison (Bonita) 07/24 10:29:13 64.6 56.0 75 4 West 4 30.24 0.00
KORMILWA6 Milwaukie Logus-Stanley 07/24 10:29:26 62.1 56.0 81 1 South 2 30.28 0.00
KOROREGO23 Oregon City Bradley Rd 07/24 10:25:15 59.5 54.0 82 4 South 7 30.24 0.00
KORCANBY8 Canby Quarter Moon Ranch Weather 07/24 10:29:38 62.9 57.0 81 8 SW 9 29.90 0.00
KORPORTL227 Portland Ardenwald Station #1 07/24 10:29:56 61.4 56.0 81 1 ESE 6 30.25 0.00
KORTUALA7 Tualatin Lake Forest 07/24 10:29:53 70.7 47.0 43 0 ESE 0 30.01 0.00
KORCANBY3 Canby West of Fair Grounds 07/24 10:30:01 63.9 54.0 71 4 South 7 30.27 0.00
KORWILSO8 Wilsonville Charbonneau Lakeside 07/24 10:30:05 64.0 57.0 79 3 SSE 16 29.78 0.00
KORWILSO7 Wilsonville The Village at Main Street 07/24 10:30:03 62.2 48.0 59 0 South 0 17.72 0.00
KORPORTL216 Portland Smith School 07/24 10:29:55 64.2 57.0 78 2 West 4 30.26 0.00
KUAO Aurora Official Station 07/24 09:53:00 62.0 55.0 78 16 South --- 30.27 ---
KPDX Portland Official Station 07/24 09:53:00 62.0 54.0 75 13 SSW --- 30.25 ---
KVUO Vancouver Official Station 07/24 09:53:00 61.0 53.0 75 6 South --- 30.25 ---
KTTD Portland Troutdale Official Station 07/24 09:53:00 62.0 53.0 72 15 SSW --- 30.24 ---
Full Advisory Text
No Warnings

© Ambient Weather and Weather Underground
 Never base important decisions on this or any weather information obtained from the Internet
Updated Automatically by Ambient Weather's Virtual Weather Station  V13.01